EZY8EE EGPH-EHAM

Flight info

Callsign EZY8EE
Flight time 1h 10m
Altitude 32000
Route TLA Y96 OTBUN DCT ERKIT N110 DOLAS L603 LAMSO
Aircraft A319/M-SDE3FGHIRWY/LB1

Departure

Time 2026-05-05 12:57
Airport Edinburgh Airport (EGPH)

Arrival

Time 2026-05-05 14:07
Airport Amsterdam Airport Schiphol (EHAM)
Time Latitude Longitude Altitude Speed Heading
2026-05-05 12:28 55.94833 -3.35810 112 ft 0 kts 206°
2026-05-05 12:46 55.94839 -3.35805 112 ft 4 kts 207°
2026-05-05 12:46 55.94863 -3.35782 111 ft 4 kts 208°
2026-05-05 12:47 55.94881 -3.35765 109 ft 4 kts 214°
2026-05-05 12:47 55.94895 -3.35735 109 ft 3 kts 294°
2026-05-05 12:47 55.94892 -3.35754 112 ft 3 kts 213°
2026-05-05 12:48 55.94895 -3.35735 109 ft 4 kts 299°
2026-05-05 12:48 55.94885 -3.35700 111 ft 1 kts 298°
2026-05-05 12:50 55.94886 -3.35704 111 ft 2 kts 297°
2026-05-05 12:50 55.94904 -3.35767 111 ft 8 kts 298°
2026-05-05 12:50 55.94940 -3.35850 112 ft 9 kts 324°
2026-05-05 12:51 55.95008 -3.35842 111 ft 11 kts 20°
2026-05-05 12:51 55.95025 -3.35832 112 ft 0 kts 14°
2026-05-05 12:51 55.95054 -3.35872 112 ft 11 kts 310°
2026-05-05 12:51 55.95094 -3.36007 112 ft 14 kts 291°
2026-05-05 12:52 55.95126 -3.36179 112 ft 15 kts 288°
2026-05-05 12:52 55.95110 -3.36354 110 ft 16 kts 239°
2026-05-05 12:52 55.95046 -3.36542 112 ft 20 kts 238°
2026-05-05 12:52 55.94976 -3.36749 112 ft 20 kts 238°
2026-05-05 12:53 55.94901 -3.36972 112 ft 22 kts 238°
2026-05-05 12:53 55.94820 -3.37208 112 ft 22 kts 238°
2026-05-05 12:53 55.94739 -3.37445 112 ft 22 kts 239°
2026-05-05 12:53 55.94658 -3.37685 112 ft 22 kts 239°
2026-05-05 12:54 55.94494 -3.38171 110 ft 24 kts 238°
2026-05-05 12:54 55.94408 -3.38420 112 ft 23 kts 239°
2026-05-05 12:54 55.94329 -3.38660 117 ft 21 kts 239°
2026-05-05 12:55 55.94303 -3.38882 115 ft 19 kts 320°
2026-05-05 12:55 55.94323 -3.38905 117 ft 0 kts 328°
2026-05-05 12:55 55.94328 -3.38911 117 ft 4 kts 328°
2026-05-05 12:56 55.94379 -3.38965 112 ft 10 kts 332°
2026-05-05 12:56 55.94430 -3.38925 115 ft 8 kts 53°
2026-05-05 12:56 55.94505 -3.38712 112 ft 53 kts 58°
2026-05-05 12:56 55.94828 -3.37760 115 ft 123 kts 59°
2026-05-05 12:57 55.95318 -3.36276 398 ft 150 kts 61°
2026-05-05 12:57 55.95910 -3.34547 936 ft 173 kts 56°
2026-05-05 12:57 55.96815 -3.32947 1396 ft 199 kts 43°
2026-05-05 12:57 55.97911 -3.31197 1978 ft 223 kts 44°
2026-05-05 12:58 55.99099 -3.29299 2894 ft 234 kts 43°
2026-05-05 12:58 56.00331 -3.27326 3898 ft 241 kts 42°
2026-05-05 12:58 56.01604 -3.25281 4830 ft 251 kts 41°
2026-05-05 12:58 56.02927 -3.23154 5666 ft 262 kts 40°
2026-05-05 12:59 56.04272 -3.20913 6590 ft 267 kts 45°
2026-05-05 12:59 56.05110 -3.17896 7431 ft 282 kts 79°
2026-05-05 12:59 56.05133 -3.14338 8325 ft 291 kts 93°
2026-05-05 13:00 56.03632 -3.07613 10012 ft 306 kts 138°
2026-05-05 13:00 56.01922 -3.05227 10523 ft 323 kts 147°
2026-05-05 13:01 55.95534 -2.99763 12090 ft 354 kts 188°
2026-05-05 13:01 55.93185 -3.00882 12915 ft 349 kts 207°
2026-05-05 13:01 55.90958 -3.02647 13762 ft 352 kts 208°
2026-05-05 13:01 55.88715 -3.04459 14493 ft 356 kts 207°
2026-05-05 13:02 55.86349 -3.05708 15177 ft 367 kts 191°
2026-05-05 13:02 55.83767 -3.05647 15887 ft 375 kts 179°
2026-05-05 13:02 55.81155 -3.05248 16621 ft 378 kts 178°
2026-05-05 13:02 55.78526 -3.04822 17340 ft 381 kts 178°
2026-05-05 13:03 55.75876 -3.04382 18051 ft 385 kts 178°
2026-05-05 13:03 55.73201 -3.03937 18694 ft 388 kts 178°
2026-05-05 13:03 55.70519 -3.03186 19258 ft 396 kts 167°
2026-05-05 13:03 55.67872 -3.01687 19887 ft 399 kts 165°
2026-05-05 13:04 55.65222 -3.00146 20502 ft 402 kts 165°
2026-05-05 13:04 55.62554 -2.98601 21112 ft 405 kts 165°
2026-05-05 13:04 55.59864 -2.97053 21698 ft 408 kts 165°
2026-05-05 13:04 55.57153 -2.95503 22254 ft 412 kts 165°
2026-05-05 13:05 55.54380 -2.93929 22396 ft 425 kts 165°
2026-05-05 13:05 55.51519 -2.92321 22531 ft 437 kts 165°
2026-05-05 13:05 55.48592 -2.90688 22752 ft 445 kts 165°
2026-05-05 13:05 55.45627 -2.89040 23143 ft 448 kts 165°
2026-05-05 13:06 55.42639 -2.87386 23578 ft 451 kts 165°
2026-05-05 13:06 55.39638 -2.85731 23944 ft 453 kts 165°
2026-05-05 13:06 55.36674 -2.84098 24301 ft 455 kts 165°
2026-05-05 13:06 55.33624 -2.82417 24665 ft 457 kts 165°
2026-05-05 13:07 55.30590 -2.80729 25015 ft 459 kts 164°
2026-05-05 13:07 55.27685 -2.78306 25338 ft 467 kts 148°
2026-05-05 13:07 55.25168 -2.74681 25674 ft 471 kts 140°
2026-05-05 13:07 55.22734 -2.70816 26010 ft 473 kts 140°
2026-05-05 13:08 55.20300 -2.66906 26337 ft 475 kts 140°
2026-05-05 13:08 55.17870 -2.62957 26646 ft 478 kts 140°
2026-05-05 13:08 55.15439 -2.58977 26952 ft 480 kts 140°
2026-05-05 13:08 55.13002 -2.54982 27245 ft 482 kts 140°
2026-05-05 13:09 55.10549 -2.50973 27526 ft 484 kts 140°
2026-05-05 13:09 55.08083 -2.46960 27809 ft 486 kts 140°
2026-05-05 13:09 55.05596 -2.42935 28187 ft 486 kts 140°
2026-05-05 13:09 55.03117 -2.38938 28619 ft 485 kts 140°
2026-05-05 13:10 55.00641 -2.34958 29051 ft 484 kts 141°
2026-05-05 13:10 54.98171 -2.30991 29637 ft 480 kts 141°
2026-05-05 13:10 54.95736 -2.27079 30252 ft 475 kts 141°
2026-05-05 13:10 54.93307 -2.23185 30699 ft 473 kts 141°
2026-05-05 13:11 54.90890 -2.19315 31107 ft 472 kts 141°
2026-05-05 13:11 54.88473 -2.15455 31420 ft 474 kts 141°
2026-05-05 13:11 54.86026 -2.11557 31560 ft 479 kts 141°
2026-05-05 13:11 54.83558 -2.07630 31700 ft 484 kts 141°
2026-05-05 13:12 54.81070 -2.03678 31943 ft 486 kts 141°
2026-05-05 13:12 54.78574 -1.99718 32292 ft 486 kts 141°
2026-05-05 13:12 54.76082 -1.95766 32674 ft 485 kts 141°
2026-05-05 13:12 54.73595 -1.91827 32981 ft 485 kts 140°
2026-05-05 13:13 54.68624 -1.83981 33038 ft 482 kts 140°
2026-05-05 13:13 54.63661 -1.76193 33048 ft 481 kts 141°
2026-05-05 13:14 54.58706 -1.68432 33060 ft 481 kts 140°
2026-05-05 13:14 54.53753 -1.60699 33056 ft 480 kts 140°
2026-05-05 13:15 54.48799 -1.52991 33050 ft 480 kts 140°
2026-05-05 13:15 54.43877 -1.45363 33059 ft 479 kts 140°
2026-05-05 13:16 54.38921 -1.37714 33048 ft 479 kts 140°
2026-05-05 13:16 54.33971 -1.30091 33034 ft 478 kts 140°
2026-05-05 13:17 54.29017 -1.22488 33029 ft 478 kts 140°
2026-05-05 13:17 54.24056 -1.14899 33028 ft 478 kts 140°
2026-05-05 13:18 54.19093 -1.07343 33029 ft 478 kts 140°
2026-05-05 13:18 54.14128 -0.99811 33033 ft 477 kts 140°
2026-05-05 13:19 54.09160 -0.92294 33033 ft 477 kts 140°
2026-05-05 13:19 54.04200 -0.84806 33031 ft 476 kts 140°
2026-05-05 13:20 53.98889 -0.78146 33028 ft 474 kts 147°
2026-05-05 13:20 53.93466 -0.71795 33028 ft 473 kts 147°
2026-05-05 13:21 53.88076 -0.65501 33021 ft 473 kts 147°
2026-05-05 13:21 53.82653 -0.59177 33016 ft 472 kts 147°
2026-05-05 13:22 53.77252 -0.52898 33016 ft 472 kts 147°
2026-05-05 13:22 53.71838 -0.46646 33013 ft 471 kts 147°
2026-05-05 13:23 53.66434 -0.40410 33014 ft 470 kts 147°
2026-05-05 13:23 53.61031 -0.34195 33009 ft 470 kts 147°
2026-05-05 13:24 53.56164 -0.26906 33000 ft 470 kts 129°
2026-05-05 13:24 53.52224 -0.18122 33004 ft 470 kts 128°
2026-05-05 13:25 53.48296 -0.09376 33002 ft 469 kts 128°
2026-05-05 13:25 53.44357 -0.00668 33003 ft 468 kts 128°
2026-05-05 13:26 53.40416 0.08025 33004 ft 468 kts 128°
2026-05-05 13:26 53.36471 0.16705 32999 ft 468 kts 128°
2026-05-05 13:27 53.32522 0.25364 32996 ft 468 kts 128°
2026-05-05 13:27 53.28584 0.33964 32988 ft 468 kts 129°
2026-05-05 13:28 53.24610 0.42603 32986 ft 469 kts 129°
2026-05-05 13:28 53.21309 0.49773 32982 ft 469 kts 129°
2026-05-05 13:29 53.17332 0.58404 32991 ft 469 kts 129°
2026-05-05 13:29 53.13337 0.67010 32983 ft 470 kts 129°
2026-05-05 13:30 53.09331 0.75607 32976 ft 470 kts 130°
2026-05-05 13:30 53.05323 0.84195 32979 ft 470 kts 130°
2026-05-05 13:31 53.01306 0.92770 32973 ft 470 kts 130°
2026-05-05 13:31 52.97964 1.02108 32972 ft 476 kts 113°
2026-05-05 13:32 52.96404 1.12807 32974 ft 479 kts 103°
2026-05-05 13:32 52.95160 1.23666 32971 ft 480 kts 103°
2026-05-05 13:33 52.93887 1.34526 32973 ft 480 kts 103°
2026-05-05 13:33 52.92607 1.45312 32981 ft 480 kts 103°
2026-05-05 13:34 52.91316 1.56180 32976 ft 481 kts 104°
2026-05-05 13:34 52.90012 1.67065 33002 ft 483 kts 104°
2026-05-05 13:35 52.88692 1.77982 33001 ft 483 kts 104°
2026-05-05 13:35 52.87365 1.88882 32999 ft 484 kts 104°
2026-05-05 13:36 52.86032 1.99791 32998 ft 484 kts 104°
2026-05-05 13:36 52.84681 2.10698 32997 ft 484 kts 104°
2026-05-05 13:37 52.83314 2.21603 33001 ft 484 kts 104°
2026-05-05 13:37 52.81945 2.32508 33000 ft 484 kts 104°
2026-05-05 13:38 52.80563 2.43399 32997 ft 484 kts 104°
2026-05-05 13:38 52.79177 2.54290 32992 ft 484 kts 104°
2026-05-05 13:39 52.77780 2.65173 32992 ft 484 kts 105°
2026-05-05 13:39 52.76376 2.75969 32985 ft 484 kts 105°
2026-05-05 13:40 52.74953 2.86829 32981 ft 484 kts 105°
2026-05-05 13:40 52.73450 2.97637 32976 ft 481 kts 110°
2026-05-05 13:41 52.72153 3.02689 32972 ft 476 kts 122°
2026-05-05 13:41 52.70509 3.07417 32976 ft 475 kts 123°
2026-05-05 13:41 52.67196 3.16840 32969 ft 475 kts 123°
2026-05-05 13:42 52.63876 3.26263 32905 ft 474 kts 123°
2026-05-05 13:42 52.62232 3.30916 32170 ft 469 kts 123°
2026-05-05 13:42 52.60586 3.35565 31185 ft 470 kts 123°
2026-05-05 13:43 52.59030 3.40297 30202 ft 474 kts 116°
2026-05-05 13:43 52.58071 3.45524 29074 ft 481 kts 104°
2026-05-05 13:43 52.57495 3.50929 28088 ft 479 kts 102°
2026-05-05 13:43 52.56941 3.56237 27233 ft 474 kts 102°
2026-05-05 13:44 52.56383 3.61545 26409 ft 469 kts 102°
2026-05-05 13:44 52.55826 3.66789 25610 ft 463 kts 102°
2026-05-05 13:44 52.55268 3.71981 24823 ft 458 kts 102°
2026-05-05 13:44 52.54713 3.77107 24106 ft 453 kts 102°
2026-05-05 13:45 52.54165 3.82123 23893 ft 436 kts 102°
2026-05-05 13:45 52.53639 3.86926 23771 ft 419 kts 102°
2026-05-05 13:45 52.53132 3.91537 23651 ft 404 kts 102°
2026-05-05 13:45 52.52639 3.96004 23529 ft 391 kts 103°
2026-05-05 13:46 52.51888 4.00171 23398 ft 373 kts 118°
2026-05-05 13:46 52.50520 4.03673 22983 ft 362 kts 133°
2026-05-05 13:46 52.48605 4.06379 21966 ft 368 kts 152°
2026-05-05 13:46 52.46248 4.08021 21250 ft 368 kts 168°
2026-05-05 13:47 52.43730 4.08524 20693 ft 364 kts 183°
2026-05-05 13:47 52.41248 4.07883 20179 ft 360 kts 198°
2026-05-05 13:47 52.38996 4.06147 19671 ft 357 kts 214°
2026-05-05 13:47 52.37148 4.03460 19157 ft 356 kts 230°
2026-05-05 13:48 52.35837 4.00050 18655 ft 355 kts 246°
2026-05-05 13:48 52.35150 3.96177 18148 ft 356 kts 262°
2026-05-05 13:48 52.35126 3.92141 17600 ft 355 kts 274°
2026-05-05 13:48 52.35429 3.88137 17086 ft 354 kts 278°
2026-05-05 13:49 52.35857 3.84196 16616 ft 351 kts 280°
2026-05-05 13:49 52.36342 3.80300 16135 ft 348 kts 281°
2026-05-05 13:49 52.36837 3.76431 15681 ft 346 kts 281°
2026-05-05 13:49 52.37313 3.72587 15226 ft 343 kts 281°
2026-05-05 13:50 52.37766 3.68769 14788 ft 341 kts 280°
2026-05-05 13:50 52.38203 3.64974 14346 ft 338 kts 281°
2026-05-05 13:50 52.38925 3.61332 13923 ft 336 kts 295°
2026-05-05 13:50 52.40185 3.58129 13476 ft 334 kts 310°
2026-05-05 13:51 52.41883 3.55629 13007 ft 333 kts 325°
2026-05-05 13:51 52.43945 3.53926 12543 ft 332 kts 340°
2026-05-05 13:51 52.46194 3.53160 12075 ft 331 kts 355°
2026-05-05 13:51 52.48479 3.53377 11620 ft 330 kts 10°
2026-05-05 13:52 52.50649 3.54540 11154 ft 329 kts 25°
2026-05-05 13:52 52.52542 3.56579 10914 ft 321 kts 40°
2026-05-05 13:52 52.54019 3.59228 10782 ft 310 kts 53°
2026-05-05 13:52 52.55040 3.62281 10648 ft 301 kts 68°
2026-05-05 13:53 52.55586 3.65564 10367 ft 297 kts 81°
2026-05-05 13:53 52.55640 3.68934 10091 ft 293 kts 94°
2026-05-05 13:53 52.55405 3.72256 9939 ft 292 kts 98°
2026-05-05 13:53 52.55050 3.75573 9963 ft 296 kts 100°
2026-05-05 13:54 52.54649 3.78894 9962 ft 296 kts 101°
2026-05-05 13:54 52.54240 3.82213 9964 ft 297 kts 101°
2026-05-05 13:54 52.53838 3.85535 9964 ft 297 kts 101°
2026-05-05 13:54 52.53444 3.88861 9960 ft 297 kts 100°
2026-05-05 13:55 52.53057 3.92192 9961 ft 297 kts 100°
2026-05-05 13:55 52.52623 3.95500 9886 ft 297 kts 108°
2026-05-05 13:55 52.51672 3.98489 9661 ft 298 kts 128°
2026-05-05 13:55 52.50363 4.01055 9245 ft 296 kts 130°
2026-05-05 13:56 52.49044 4.03630 8837 ft 294 kts 130°
2026-05-05 13:56 52.47741 4.06191 8432 ft 291 kts 129°
2026-05-05 13:56 52.46449 4.08737 8025 ft 289 kts 129°
2026-05-05 13:56 52.45167 4.11258 7628 ft 287 kts 129°
2026-05-05 13:57 52.43896 4.13757 7232 ft 284 kts 129°
2026-05-05 13:57 52.42636 4.16233 6846 ft 282 kts 129°
2026-05-05 13:57 52.41385 4.18686 6490 ft 278 kts 129°
2026-05-05 13:57 52.40152 4.21100 6113 ft 275 kts 129°
2026-05-05 13:58 52.38931 4.23490 5727 ft 272 kts 129°
2026-05-05 13:58 52.37722 4.25855 5351 ft 270 kts 129°
2026-05-05 13:58 52.36568 4.28109 4993 ft 269 kts 128°
2026-05-05 13:58 52.35370 4.30441 4618 ft 267 kts 127°
2026-05-05 13:59 52.33003 4.35046 3880 ft 262 kts 127°
2026-05-05 13:59 52.31834 4.37323 3514 ft 260 kts 127°
2026-05-05 14:00 52.29560 4.41742 3080 ft 240 kts 127°
2026-05-05 14:00 52.28861 4.43096 3023 ft 231 kts 127°
2026-05-05 14:00 52.27536 4.45659 2911 ft 216 kts 127°
2026-05-05 14:00 52.26584 4.47494 2833 ft 205 kts 126°
2026-05-05 14:01 52.25699 4.49197 2716 ft 188 kts 125°
2026-05-05 14:01 52.24903 4.50725 2634 ft 167 kts 126°
2026-05-05 14:01 52.24178 4.52121 2565 ft 153 kts 125°
2026-05-05 14:01 52.23514 4.53402 2494 ft 148 kts 124°
2026-05-05 14:02 52.22921 4.54730 2444 ft 139 kts 110°
2026-05-05 14:02 52.22681 4.56173 2372 ft 127 kts 90°
2026-05-05 14:02 52.22776 4.57562 2271 ft 122 kts 69°
2026-05-05 14:02 52.23150 4.58792 2152 ft 123 kts 54°
2026-05-05 14:03 52.23605 4.59969 1994 ft 123 kts 55°
2026-05-05 14:03 52.24062 4.61152 1840 ft 123 kts 54°
2026-05-05 14:03 52.24515 4.62326 1675 ft 122 kts 54°
2026-05-05 14:03 52.24968 4.63498 1504 ft 123 kts 54°
2026-05-05 14:04 52.25420 4.64668 1339 ft 120 kts 54°
2026-05-05 14:04 52.25873 4.65841 1164 ft 121 kts 55°
2026-05-05 14:04 52.26315 4.66988 993 ft 123 kts 55°
2026-05-05 14:04 52.26769 4.68150 765 ft 122 kts 56°
2026-05-05 14:05 52.27226 4.69314 653 ft 123 kts 54°
2026-05-05 14:05 52.27698 4.70491 463 ft 122 kts 55°
2026-05-05 14:05 52.28129 4.71658 331 ft 121 kts 55°
2026-05-05 14:05 52.28571 4.72822 185 ft 121 kts 57°
2026-05-05 14:06 52.29013 4.73989 35 ft 120 kts 57°
2026-05-05 14:06 52.29430 4.75077 -2 ft 99 kts 57°
2026-05-05 14:06 52.29717 4.75816 -2 ft 58 kts 58°
2026-05-05 14:06 52.29896 4.76289 -3 ft 51 kts 58°
2026-05-05 14:07 52.30088 4.76788 -1 ft 51 kts 58°
2026-05-05 14:07 52.30271 4.77248 -4 ft 33 kts 47°
2026-05-05 14:07 52.30446 4.77410 -2 ft 15 kts 10°
2026-05-05 14:07 52.30452 4.77410 -2 ft 0 kts 359°
2026-05-05 14:08 52.30453 4.77410 -2 ft 0 kts 359°
2026-05-05 14:08 52.30485 4.77397 -1 ft 8 kts 345°
2026-05-05 14:08 52.30541 4.77427 -1 ft 10 kts 52°
2026-05-05 14:09 52.30587 4.77527 -1 ft 11 kts 48°
2026-05-05 14:09 52.30659 4.77586 -1 ft 12 kts
2026-05-05 14:09 52.30749 4.77595 -1 ft 14 kts
2026-05-05 14:09 52.30847 4.77605 -1 ft 15 kts
2026-05-05 14:10 52.30969 4.77616 -1 ft 20 kts
2026-05-05 14:10 52.31108 4.77628 -1 ft 21 kts
2026-05-05 14:10 52.31273 4.77642 -1 ft 25 kts
2026-05-05 14:10 52.31449 4.77635 -1 ft 25 kts 339°
2026-05-05 14:11 52.31569 4.77430 -1 ft 26 kts 290°
2026-05-05 14:11 52.31569 4.77135 -1 ft 26 kts 267°
2026-05-05 14:11 52.31558 4.76834 -1 ft 27 kts 267°
2026-05-05 14:11 52.31548 4.76530 -1 ft 27 kts 266°
2026-05-05 14:12 52.31538 4.76223 -1 ft 27 kts 267°
2026-05-05 14:12 52.31526 4.75909 -1 ft 28 kts 266°
2026-05-05 14:12 52.31516 4.75590 -1 ft 25 kts 267°
2026-05-05 14:12 52.31453 4.75469 -1 ft 15 kts 179°
2026-05-05 14:13 52.31345 4.75479 -1 ft 16 kts 177°
2026-05-05 14:13 52.31232 4.75489 -1 ft 17 kts 176°
2026-05-05 14:13 52.31134 4.75498 -1 ft 10 kts 180°
2026-05-05 14:13 52.31078 4.75434 -1 ft 8 kts 228°
2026-05-05 14:14 52.31055 4.75437 -1 ft 4 kts 165°
2026-05-05 14:14 52.31028 4.75461 -1 ft 0 kts 146°